国际通讯卫星 4A-F6星 (INTELSAT 4A-F6)

导读 | 星芒AI

INTELSAT 4A-F6 是一颗由波音公司制造的通信卫星,于2007年发射,旨在为欧洲、非洲和中东地区提供广播和宽带服务。该卫星搭载C波段和Ku波段转发器,支持电视传输、企业通信和互联网接入。作为INTELSAT 4A系列的一部分,F6卫星增强了国际通信能力,并在轨运行多年,为多个地区的用户提供稳定的服务。

基本信息
目录编号:
10778
目录名称:
INTELSAT 4A-F6
国际标识:
1978-035A
轨道中心:
EARTH
卫星名称:
国际通讯卫星 4A-F6星
卫星全名:
国际通讯卫星 4A-F6星 (INTELSAT 4A-F6)
卫星状态:
在轨 (已飞行17426 天)
发射日期:
1978-03-31 UTC
国别 :
(ITSO)
星等 :
--
轨道信息
数据来源 国际轨道数据
星历时间: 2025-12-14T15:10:48+0800
1天前
查看轨道信息
半长轴: 42148.701km
偏心率: 0.0009724
轨道倾角: 9.128°
近地点辐角 306.808°
升交点赤经 312.906°
平近点角 59.449°
近地点: 35729.58km
远地点: 35811.552km
周期: 1435.278分钟
每日圈数: 1.00329
详细信息
卫星平台:
HS-353
平衡模式:
自旋稳定
覆盖范围:
全球
运营商:
国际卫星通信公司
运营商所在国:
美国
制造商(研发单位):
休斯公司
制造商所在国:
美国
使用方式:
暂无
卫星简介
从1965年4月至1984年3月,国际通信卫星组织发射了5代、6种不同性能的卫星共计35颗,除6颗卫星因运载火箭和远地点发动机故障而发射失败外,其余29颗卫星均被送到了预定的静止轨道位置。1984年8月前后,国际通信卫星组织利用部署在大西洋、太平洋、印度洋上空的15颗国际通信卫星,为遍布世界各地170多个国家或地区提供电话、电传、电报、电视和数据传输等电信业务;该卫星已退役。
2D轨道图
3D轨道图
轨道高度分析图
轨道倾角分析图
轨道综合分析图
查看轨道综合分析图